TimeMST,TemperatureF,Dew PointF,Humidity,Sea Level PressureIn,VisibilityMPH,Wind Direction,Wind SpeedMPH,Gust SpeedMPH,PrecipitationIn,Events,Conditions,WindDirDegrees,DateUTC
12:53 AM,43.0,35.1,74,30.33,10.0,NNE,3.5,-,N/A,,Clear,20,2012-11-05 07:53:00
1:53 AM,42.8,33.8,70,30.38,10.0,NNW,4.6,-,N/A,,Clear,340,2012-11-05 08:53:00
2:53 AM,37.0,32.0,82,30.33,10.0,Variable,4.6,-,N/A,,Clear,0,2012-11-05 09:53:00
3:53 AM,37.0,32.0,82,30.30,10.0,Calm,Calm,-,N/A,,Mostly Cloudy,0,2012-11-05 10:53:00
4:53 AM,39.0,34.0,82,30.30,10.0,North,4.6,-,N/A,,Overcast,360,2012-11-05 11:53:00
5:53 AM,46.9,36.0,66,30.24,10.0,Variable,4.6,-,N/A,,Mostly Cloudy,0,2012-11-05 12:53:00
6:53 AM,48.9,36.0,61,30.23,10.0,WSW,8.1,16.1,N/A,,Clear,240,2012-11-05 13:53:00
7:53 AM,50.0,37.0,61,30.21,10.0,Variable,4.6,-,N/A,,Clear,0,2012-11-05 14:53:00
8:53 AM,52.0,37.0,57,30.20,10.0,NNW,12.7,19.6,N/A,,Partly Cloudy,330,2012-11-05 15:53:00
9:53 AM,55.0,37.9,53,30.22,10.0,West,8.1,-,N/A,,Scattered Clouds,280,2012-11-05 16:53:00
10:53 AM,59.0,36.0,42,30.19,10.0,West,18.4,27.6,N/A,,Clear,260,2012-11-05 17:53:00
11:53 AM,60.1,34.0,38,30.14,10.0,West,20.7,33.4,N/A,,Clear,260,2012-11-05 18:53:00
12:53 PM,62.1,33.1,34,30.13,10.0,West,17.3,33.4,N/A,,Clear,270,2012-11-05 19:53:00
1:53 PM,62.1,30.9,31,30.13,10.0,WNW,11.5,26.5,N/A,,Partly Cloudy,290,2012-11-05 20:53:00
2:53 PM,61.0,28.9,30,30.17,10.0,NW,19.6,24.2,N/A,,Clear,310,2012-11-05 21:53:00
3:53 PM,57.9,30.0,35,30.21,10.0,NW,11.5,-,N/A,,Clear,310,2012-11-05 22:53:00
4:53 PM,55.0,28.0,35,30.22,10.0,Calm,Calm,-,N/A,,Clear,0,2012-11-05 23:53:00
5:53 PM,52.0,27.0,38,30.21,10.0,WNW,5.8,-,N/A,,Clear,300,2012-11-06 00:53:00
6:53 PM,50.0,28.9,44,30.22,10.0,Variable,3.5,-,N/A,,Clear,0,2012-11-06 01:53:00
7:53 PM,48.0,28.9,48,30.24,10.0,Calm,Calm,-,N/A,,Clear,0,2012-11-06 02:53:00
8:53 PM,44.1,28.9,55,30.26,10.0,NNE,4.6,-,N/A,,Clear,30,2012-11-06 03:53:00
9:53 PM,37.0,28.0,70,30.27,10.0,SE,4.6,-,N/A,,Clear,140,2012-11-06 04:53:00
10:53 PM,35.1,27.0,72,30.25,10.0,SE,5.8,-,N/A,,Clear,140,2012-11-06 05:53:00
11:53 PM,33.1,27.0,78,30.27,10.0,Calm,Calm,-,N/A,,Clear,0,2012-11-06 06:53:00